Regional Weather Roundup
Issued by NWS Sterling, VA

Home | Current Version | Previous Version | Graphics & Text | Print | Product List | Glossary On
Versions: 1 2 3 4 5 6 7 8 9 10 11 12 13 14 15 16 17 18 19 20 21 22 23 24 25 26 27 28
000
ASUS41 KLWX 260511
RWRLWX

REGIONAL WEATHER ROUNDUP
NATIONAL WEATHER SERVICE BALTIMORE MD/WASHINGTON DC
100 AM EDT FRI MAY 26 2017

Note: "FAIR" indicates few or no clouds below 12,000 feet
with no significant weather and/or obstructions to visibility.
 TC=TEMPERATURE CELSIUS

 * =Non NWS site. Station does not report precipitation (e.g. rain,
    snow, etc.), thunder, or fog.

DCZ001-MDZ009-015-VAZ040>042-051-053>054-260600-
WASHINGTON METRO

CITY           SKY/WX    TMP DP  RH WIND       PRES   REMARKS
WASHINGTON NAT PTCLDY    60  59  96 SW7       29.57R
DULLES         PTCLDY    56  54  93 S3        29.58R
ANDREWS AFB    CLEAR     58  57  97 SW5       29.56R
FT BELVOIR     CLEAR     58  56  92 W3        29.58R
QUANTICO       PTCLDY    59  58  96 NW3       29.60R
COLLEGE PARK*  PTCLDY    58  56  94 CALM      29.56S
LEESBURG*      CLEAR     57  57 100 W10       29.59R
MANASSAS*      CLEAR     55  54  94 SE3       29.59R FOG
GAITHERSBURG*  PTCLDY    56  56 100 W6        29.57S

$$

MDZ006>007-011-014-260600-
BALTIMORE METRO

CITY           SKY/WX    TMP DP  RH WIND       PRES   REMARKS
BWI AIRPORT    MOCLDY    58  58 100 SW7       29.54S
MD SCIENCE CTR   N/A     61  58  90 MISG      29.54R
MARTIN STATE   MOCLDY    61  59  94 CALM      29.54S
ANNAPOLIS      CLOUDY    61  60  97 W6        29.54R
FORT MEADE*    MOCLDY    55  55 100 SW3       29.57S

$$

MDZ012-015-019>023-260600-
MARYLAND EASTERN SHORE

CITY           SKY/WX    TMP DP  RH WIND       PRES   REMARKS
OCEAN CITY     CLOUDY    62  59  90 W15G21    29.56R
SALISBURY      PTCLDY    61  60  97 W9        29.56R
BAY BRIDGE AP* PTCLDY    61  57  88 W9        29.54S
CAMBRIDGE*     CLEAR     61  57  88 W7        29.57R
EASTON*        PTCLDY    61  58  90 W6        29.59R

$$

MDZ017>025-260600-
SOUTHERN MARYLAND

CITY           SKY/WX    TMP DP  RH WIND       PRES   REMARKS
PATUXENT RIVER CLEAR     60  60 100 W9        29.57R
ST INIGOES     CLEAR     63  58  83 W10G17    29.57R
LEONARDTOWN*   CLEAR     59  55  88 W5        29.60R

$$

MDZ003>005-260600-
NORTH CENTRAL MARYLAND

CITY           SKY/WX    TMP DP  RH WIND       PRES   REMARKS
FREDERICK*     MOCLDY    59  59 100 SE3       29.59S
HAGERSTOWN APT MOCLDY    60  58  92 SW7       29.57R
WESTMINSTER*   LGT RAIN  59  59 100 W9        29.55S

$$

MDZ501>502-260600-
WESTERN MARYLAND

CITY           SKY/WX    TMP DP  RH WIND       PRES   REMARKS
OAKLAND*         N/A     50  50 100 W9G17     29.64S
CUMBERLAND*    PTCLDY    59  54  82 CALM      29.63S

$$

VAZ025>031-260600-
SHENANDOAH VALLEY

CITY           SKY/WX    TMP DP  RH WIND       PRES   REMARKS
WINCHESTER*    CLOUDY    54  52  94 SE3       29.60R
FRONT ROYAL*   CLOUDY    54  54 100 S5        29.60R
LURAY*         MOCLDY    54  54 100 SE3         N/A  FOG
NEW MARKET*    PTCLDY    54  53  96 CALM      29.62R
STAUNTON*      PTCLDY    54  51  89 CALM      29.66R
WAYNESBORO*    MOCLDY    57  53  86 SW8       29.64S

$$

WVZ021-048>050-054>055-260600-
EASTERN WEST VIRGINIA PANHANDLE

CITY           SKY/WX    TMP DP  RH WIND       PRES   REMARKS
MARTINSBURG    PTCLDY    57  54  89 S3        29.58R
PETERSBURG*    CLOUDY    60  53  76 E5        29.62S

$$

VAZ036>039-050-260600-
CENTRAL FOOTHILLS

CITY           SKY/WX    TMP DP  RH WIND       PRES   REMARKS
CHARLOTTESVILL PTCLDY    62  53  72 SW6       29.62R
CULPEPER*      PTCLDY    54  54 100 CALM      29.61R FOG
ORANGE*        MOCLDY    54  54 100 CALM      29.60S
GORDONSVILLE*  PTCLDY    57  54  88 SW3       29.61R
WARRENTON*     CLEAR     56  53  91 CALM      29.59S

$$

VAZ055>057-260600-
NORTH AND CENTRAL PIEDMONT

CITY           SKY/WX    TMP DP  RH WIND       PRES   REMARKS
FREDERICKSBRG* CLEAR     57  57 100 SW3       29.59R
STAFFORD*      CLEAR     55  55 100 CALM      29.64R

$$

NCZ024-NYZ072-PAZ021-071-VAZ022-071-260600-
OTHER REGIONAL OBSERVATIONS

CITY           SKY/WX    TMP DP  RH WIND       PRES   REMARKS
NEW YORK CITY  CLOUDY    57  56  96 VRB3      29.51F
PHILADELPHIA   DRIZZLE   58  56  93 S7        29.50R FOG
PITTSBURGH     DRIZZLE   57  57 100 W7        29.60R
ROANOKE        CLOUDY    63  54  72 W7        29.72R
RICHMOND       PTCLDY    60  54  80 SW12      29.63R
RALEIGH        PTCLDY    60  54  80 SW9       29.76R

$$

ANZ530>537-260600-
MARINE OBSERVATIONS

STATION/POSITION TIME  TEMP    WIND        PRES
                       AIR SEA DIR/SP/G
                 (UTC) (F)     (DEG/KT/KT) (MB)
THOMAS PT LIGHT  0500   60 65  260/ 13/ 14   N/A
BALT KEY BRIDGE  0448   61     260/ 10/ 12  999.9R
COVE POINT       0448   60     290/  8/ 12 1001.8R
LEWISETTA        0448   62 68  260/ 10/ 14 1001.5R
SOLOMONS ISLAND  0448   61 67  270/  5/  7   N/A
PINEY POINT      0448          280/ 12/ 14   N/A

$$





USA.gov is the U.S. government's official web portal to all federal, state and local government web resources and services.